Location: Ettringen
(48.1054°N, 10.6545°E)
Time: 23:54:13
(UTC+00:00)

Cosmos 1656 Rocket - Pass Details

Date: 18 November 2025
Orbit: 791 x 846 km, 71.1° (Epoch: 05 December)

Event Time Altitude Azimuth Distance (km) Brightness Sun altitude
Rises 17:59:43 0° 198° (SSW) 3,329 7.1 -23.7°
Reaches altitude 10° 18:02:07 10° 196° (SSW) 2,409 6.3 -24.1°
Maximum altitude 18:07:37 71° 113° (ESE) 877 3.5 -25.1°
Enters shadow 18:07:59 69° 84° (E) 891 3.5 -25.1°
